Location: Unspecified
(0.0000°N, 0.0000°E)
Time: 21:02:23
(UTC+00:00)

Courier 1B Rocket - Visible Passes

Search period start: 19 February 2017 00:00
Search period end: 01 March 2017 00:00
Orbit: 920 x 1202 km, 28.3° (Epoch: 18 February)

Date Brightness Start Highest point End Pass type
(mag) Time Alt. Az. Time Alt. Az. Time Alt. Az.
22 Feb 7.1 20:06:02 10° NNW 20:07:34 13° N 20:07:34 13° N visible
23 Feb 7.0 19:06:42 10° N 19:08:14 11° NNE 19:09:45 10° NNE visible
23 Feb 7.4 20:56:41 10° NW 20:57:03 11° NW 20:57:03 11° NW visible
24 Feb 6.5 19:56:06 10° NNW 20:00:11 22° N 20:00:11 22° N visible
25 Feb 6.7 18:55:45 10° NNW 19:00:03 17° NNE 19:03:24 12° NE visible
25 Feb 6.9 20:47:30 10° NW 20:49:47 22° NW 20:49:47 22° NW visible
26 Feb 5.7 19:46:37 10° NW 19:53:01 36° NNE 19:53:03 36° NNE visible
27 Feb 6.3 18:45:54 10° NNW 18:51:43 25° NNE 18:56:22 13° ENE visible
27 Feb 6.1 20:38:33 10° WNW 20:42:47 39° NW 20:42:47 39° NW visible
28 Feb 5.2 19:37:24 10° NW 19:44:27 56° NNE 19:46:09 45° ENE visible
28 Feb 7.6 21:31:38 10° W 21:32:33 14° W 21:32:33 14° W visible
